Location: Newark
(15.4608°S, 41.1635°W)
Time: 22:36:16
(UTC+00:00)

Vanguard 3 - Pass Details

Date: 07 August 2021
Orbit: 510 x 3260 km, 33.3° (Epoch: 20 September)

Event Time Altitude Azimuth Distance (km) Brightness Sun altitude
Rises 08:01:00 0° 256° (WSW) 5,012 - -15.8°
Reaches altitude 10° 08:06:20 10° 238° (WSW) 3,413 - -14.6°
Exits shadow 08:08:07 13° 228° (SW) 2,941 9.5 -14.2°
Maximum altitude 08:11:19 17° 200° (SSW) 2,350 9.2 -13.4°
Drops below altitude 10° 08:15:04 10° 159° (SSE) 2,426 9.7 -12.5°
Sets 08:17:58 0° 137° (SE) 3,064 10.5 -11.9°
